St. Petersburg, FL

2:18 PM EST on December 13, 2017 (GMT -0500)
Whitted

Weather History for KSPG - September, 2011

Change the Weather History Date:

Friday, September 16, 2011

  Actual Average Record
Temperature  
Mean Temperature 83 °F -  
Max Temperature 88 °F 89 °F 94 °F (1949)
Min Temperature 78 °F 76 °F 68 °F (1976)
Cooling Degree Days 18    
Growing Degree Days 33 (Base 50)    
Moisture  
Dew Point 73 °F    
Average Humidity 75    
Maximum Humidity 90    
Minimum Humidity 49    
Precipitation  
Precipitation 0.00 in - - ()
Sea Level Pressure  
Sea Level Pressure 30.03 in    
Wind  
Wind Speed 3 mph (ENE)    
Max Wind Speed 9 mph    
Max Gust Speed -    
Visibility 9 miles    
Events      
Averages and records for this station are not official NWS values.
T = Trace of Precipitation, MM = Missing Value Source: NWS Daily Summary

Daily Weather History Graph

Daily Weather History Graph

Search for Another Location

Airport or City:

Trip Planner

Search our weather history database for the weather conditions in past years. The results will help you decide how hot, cold, wet, or windy it might be!

Date:

Astronomy

Sep. 16, 2011 Rise Set
Actual Time 7:16 AM EDT 7:34 PM EDT
Civil Twilight 6:52 AM EDT 7:57 PM EDT
Nautical Twilight 6:25 AM EDT 8:25 PM EDT
Astronomical Twilight 5:57 AM EDT 8:52 PM EDT
Moon 9:53 PM EDT (9/16) 10:52 AM EDT (9/16)
Length of Visible Light 13h 05m
Length of Day
12h 18m
Waning Gibbous, 84% of the Moon is Illuminated
Sep 16
Waning Gibbous
Sep 20
Last Quarter
Sep 27
New
Oct 3
First Quarter
Oct 11
Full

Hourly Weather History & Observations

Time (EDT) Temp. Heat Index Dew Point Humidity Pressure Visibility Wind Dir Wind Speed Gust Speed Precip Events Conditions
12:53 AM 81.0 °F 85.8 °F 73.0 °F 77% 30.00 in 10.0 mi Calm Calm - N/A   Clear
1:53 AM 80.1 °F 84.2 °F 73.0 °F 79% 30.00 in 10.0 mi Calm Calm - N/A   Clear
2:53 AM 80.1 °F 84.5 °F 73.9 °F 81% 30.00 in 10.0 mi Calm Calm - N/A   Clear
3:50 AM 78.8 °F - 75.2 °F 89% 29.99 in 8.0 mi ESE 6.9 mph - N/A   Mostly Cloudy
3:53 AM 79.0 °F - 75.0 °F 88% 29.99 in 8.0 mi ESE 6.9 mph - N/A   Mostly Cloudy
4:03 AM 78.8 °F - 75.2 °F 89% 29.99 in 8.0 mi ESE 4.6 mph - N/A   Scattered Clouds
4:53 AM 79.0 °F - 75.0 °F 88% 29.99 in 9.0 mi East 3.5 mph - N/A   Clear
5:53 AM 79.0 °F - 73.9 °F 84% 30.00 in 10.0 mi Calm Calm - N/A   Clear
6:53 AM 79.0 °F - 75.9 °F 90% 30.02 in 9.0 mi North 3.5 mph - N/A   Clear
7:53 AM 79.0 °F - 75.9 °F 90% 30.04 in 7.0 mi Calm Calm - N/A   Clear
8:53 AM 81.0 °F 87.3 °F 75.9 °F 85% 30.05 in 7.0 mi Calm Calm - N/A   Clear
9:53 AM 82.0 °F 88.6 °F 75.0 °F 79% 30.06 in 10.0 mi ENE 3.5 mph - N/A   Clear
10:53 AM 82.9 °F 89.4 °F 73.9 °F 74% 30.08 in 10.0 mi East 4.6 mph - N/A   Clear
11:53 AM 84.9 °F 93.3 °F 75.0 °F 72% 30.08 in 10.0 mi ESE 5.8 mph - N/A   Clear
12:53 PM 86.0 °F 93.0 °F 73.0 °F 65% 30.07 in 10.0 mi East 5.8 mph - N/A   Clear
1:53 PM 87.1 °F 90.6 °F 68.0 °F 53% 30.05 in 10.0 mi SE 4.6 mph - N/A   Clear
2:53 PM 88.0 °F 90.7 °F 66.9 °F 49% 30.04 in 10.0 mi South 5.8 mph - N/A   Clear
3:53 PM 88.0 °F 92.1 °F 69.1 °F 53% 30.03 in 10.0 mi NNW 5.8 mph - N/A   Partly Cloudy
4:53 PM 87.1 °F 93.6 °F 72.0 °F 61% 30.01 in 10.0 mi WNW 9.2 mph - N/A   Clear
6:53 PM 86.0 °F 91.5 °F 71.1 °F 61% 30.01 in 10.0 mi North 6.9 mph - N/A   Clear
7:53 PM 84.0 °F 89.0 °F 71.1 °F 65% 30.02 in 10.0 mi North 9.2 mph - N/A   Overcast
8:53 PM 82.9 °F 88.0 °F 72.0 °F 69% 30.03 in 10.0 mi North 8.1 mph - N/A   Partly Cloudy
9:53 PM 82.0 °F 87.4 °F 73.0 °F 74% 30.05 in 10.0 mi North 5.8 mph - N/A   Partly Cloudy
10:53 PM 82.0 °F 87.9 °F 73.9 °F 76% 30.06 in 10.0 mi NNE 4.6 mph - N/A   Clear
11:53 PM 82.0 °F 88.6 °F 75.0 °F 79% 30.07 in 10.0 mi East 9.2 mph - N/A   Mostly Cloudy